Regional Weather Roundup
Issued by NWS Jackson, KY

Home | Current Version | Previous Version | Graphics & Text | Print | Product List | Glossary On
Versions: 1 2 3 4 5 6 7 8 9 10 11 12 13 14 15 16 17 18 19 20 21 22 23 24 25 26 27 28 29 30 31 32 33 34 35 36 37 38 39 40 41 42 43 44 45 46 47 48 49 50
444
ASUS43 KJKL 011110
RWRJKL

EAST KENTUCKY HOURLY WEATHER ROUNDUP
NATIONAL WEATHER SERVICE JACKSON KY
700 AM EDT SUN MAY 01 2016

NOTE: "FAIR" INDICATES FEW OR NO CLOUDS BELOW 12,000 FEET WITH
NO SIGNIFICANT WEATHER AND/OR OBSTRUCTIONS TO VISIBILITY.

* THESE REPORTS ARE NOT UNDER NWS QUALITY CONTROL AND MAY NOT
  REPORT WEATHER SUCH AS PRECIPITATION AND FOG.

KYZ079-080-083-085-087-088-110-112-115-119-120-011200
...EASTERN KENTUCKY...

CITY           SKY/WX    TMP DP  RH WIND       PRES   REMARKS
JACKSON        FOG       60  59  96 S3        29.96S VSB 3/4
LONDON         CLOUDY    61  60  97 SE5       29.97R
SOMERSET*      CLOUDY    59  59 100 CALM      29.96R
MONTICELLO*    MOCLDY    61  60  97 NW8       29.97R
WILLIAMSBURG*  CLOUDY    59  59 100 CALM      29.98R
MIDDLESBORO*   CLOUDY    61  61 100 CALM      30.00R
HARLAN APT*    CLOUDY    61  59  94 CALM      30.01R
HAZARD APT*    DRIZZLE   61  61 100 CALM      29.98R
BLACK MTN*       N/A     55  55 100 VRB2        N/A
PIKE CO APT*   CLOUDY    59  59 100 S3        29.98S VSB 1/4
BIG SANDY APT* CLOUDY    60  60 100 CALM      29.98R
MOREHEAD APT*  CLOUDY    61  61 100 SE3       29.96R
$$

KYZ035-036-041-042-044-050-067-078-099-011200
...CENTRAL KENTUCKY...

CITY           SKY/WX    TMP DP  RH WIND       PRES   REMARKS
MT STERLING*   CLOUDY    61  61 100 CALM      29.95R
FLEMING/MASON* CLOUDY    61  60  98 S5        29.95S
DANVILLE*      CLOUDY    61  61 100 S5        29.95R
RICHMOND*      CLOUDY    61  59  94 S3        29.93S
LEXINGTON      CLOUDY    63  61  93 S7        29.94R
FRANKFORT      CLOUDY    64  61  90 S3        29.91R
LOUISVILLE     MOCLDY    64  62  93 SE5       29.91R FOG
LEBANON*       LGT RAIN  64  64 100 SW7       29.93R
BOWLING GREEN  FOG       63  62  97 CALM      29.92R VSB 1/2
$$

KYZ091>093-OHZ055-061-077-WVZ005-015-034-035-042-011200
...SOUTHERN OHIO/WEST VIRGINIA...

CITY           SKY/WX    TMP DP  RH WIND       PRES   REMARKS
COVINGTON      LGT RAIN  62  61  96 S7        29.91S
COLUMBUS       CLOUDY    58  58 100 S8        29.92R FOG
DAYTON         CLOUDY    61  60  97 SW10      29.93R FOG
WILMINGTON     CLOUDY    60  59  96 CALM      29.91R
HUNTINGTON     LGT RAIN  61  60  97 SE3       29.96R
CHARLESTON     LGT RAIN  60  57  89 SE6       29.97F
PINEVILLE*     HVY RAIN  58  55  90 MISG      30.08R
BECKLEY        RAIN      53  52  96 E6        30.04R
$$

VAZ002-007-008-TNZ017-027-036-066-071-011200
...SOUTHWEST VIRGINIA/EAST TENNESSEE...

CITY           SKY/WX    TMP DP  RH WIND       PRES   REMARKS
WISE*          TSTM      59  59 100 NW5       30.06R
BRISTOL        CLOUDY    59  58  96 CALM      30.00R
SEVIERVILLE*   CLOUDY    63  63 100 CALM      29.99R
KNOXVILLE      FOG       62  62 100 CALM      29.98R VSB 1/4
OAK RIDGE      CLOUDY    63  62  97 CALM      30.00R
CROSSVILLE     PTCLDY    67  62  84 VRB3      30.00R
NASHVILLE      PTCLDY    65  62  90 S3        29.93R
$$

...KEY TO REMARKS...
VSB - VISIBILITY IN MILES
WCI - WIND CHILL INDEX
HX  - HEAT INDEX

$$




USA.gov is the U.S. government's official web portal to all federal, state and local government web resources and services.